Total_Precipitation_Accumulation
0.01 0.00 0.00 0.00 0.01 0.02 0.02 0.00 0.00 0.01 0.01 0.01 0.00 0.00 0.00 0.00 0.00 0.00 0.00 0.00 0.00 0.00 0.00 0.00 0.01 0.05 0.12 0.15 0.11 0.06 0.03 0.02 0.01 0.01 0.02 0.02 0.02 0.02 0.04 0.04 0.04 0.08 0.16 0.23
0.00 0.00 0.00 0.00 0.02 0.02 0.01 0.01 0.00 0.01 0.01 0.00 0.00 0.00 0.00 0.00 0.00 0.00 0.00 0.00 0.00 0.00 0.00 0.00 0.00 0.00 0.01 0.04 0.06 0.07 0.04 0.02 0.02 0.03 0.06 0.09 0.12 0.12 0.14 0.13 0.11 0.10 0.10 0.16
0.00 0.00 0.00 0.00 0.01 0.01 0.00 0.00 0.00 0.00 0.00 0.00 0.00 0.00 0.00 0.00 0.00 0.00 0.00 0.00 0.00 0.00 0.00 0.00 0.00 0.00 0.00 0.01 0.02 0.04 0.07 0.07 0.04 0.11 0.25 0.40 0.48 0.47 0.36 0.29 0.32 0.28 0.20 0.14
0.00 0.00 0.00 0.00 0.00 0.00 0.00 0.00 0.00 0.00 0.00 0.00 0.00 0.00 0.00 0.00 0.00 0.00 0.00 0.00 0.00 0.00 0.00 0.00 0.00 0.01 0.01 0.01 0.01 0.01 0.04 0.08 0.11 0.25 0.51 0.77 0.90 0.82 0.65 0.55 0.47 0.39 0.27 0.19
0.00 0.00 0.00 0.00 0.00 0.00 0.00 0.00 0.00 0.00 0.01 0.00 0.00 0.00 0.00 0.01 0.02 0.03 0.03 0.01 0.00 0.00 0.00 0.00 0.02 0.02 0.05 0.06 0.06 0.06 0.11 0.23 0.38 0.50 0.63 0.83 0.92 0.88 0.79 0.71 0.65 0.53 0.46 0.36
0.00 0.00 0.00 0.00 0.00 0.00 0.00 0.00 0.00 0.00 0.00 0.00 0.00 0.01 0.04 0.08 0.07 0.06 0.05 0.02 0.01 0.01 0.00 0.02 0.04 0.06 0.10 0.16 0.18 0.18 0.25 0.34 0.40 0.49 0.61 0.69 0.73 0.80 0.84 0.84 0.80 0.66 0.52 0.41
0.00 0.00 0.00 0.00 0.00 0.00 0.00 0.00 0.00 0.01 0.01 0.02 0.01 0.04 0.11 0.09 0.06 0.06 0.04 0.02 0.01 0.01 0.01 0.02 0.04 0.08 0.11 0.17 0.20 0.23 0.31 0.40 0.41 0.47 0.55 0.62 0.67 0.75 0.82 0.82 0.66 0.48 0.37 0.34
0.00 0.00 0.00 0.00 0.00 0.00 0.00 0.00 0.01 0.02 0.02 0.03 0.03 0.09 0.18 0.10 0.04 0.02 0.02 0.01 0.02 0.03 0.03 0.03 0.03 0.06 0.11 0.13 0.18 0.26 0.32 0.35 0.39 0.48 0.57 0.60 0.67 0.74 0.76 0.64 0.48 0.39 0.35 0.34
0.00 0.00 0.00 0.00 0.00 0.00 0.00 0.00 0.01 0.03 0.02 0.02 0.03 0.09 0.11 0.05 0.03 0.02 0.02 0.03 0.04 0.04 0.05 0.04 0.04 0.07 0.09 0.12 0.16 0.21 0.27 0.32 0.39 0.48 0.59 0.72 0.77 0.72 0.63 0.46 0.36 0.32 0.28 0.25
0.00 0.00 0.00 0.00 0.00 0.00 0.00 0.01 0.02 0.03 0.04 0.06 0.08 0.13 0.11 0.05 0.05 0.04 0.04 0.05 0.10 0.11 0.10 0.09 0.12 0.15 0.15 0.13 0.18 0.21 0.23 0.31 0.37 0.44 0.60 0.82 0.82 0.62 0.47 0.37 0.36 0.31 0.27 0.25
0.00 0.00 0.00 0.00 0.00 0.03 0.05 0.03 0.02 0.02 0.03 0.13 0.28 0.39 0.42 0.38 0.26 0.23 0.20 0.23 0.32 0.28 0.25 0.22 0.26 0.28 0.23 0.19 0.20 0.21 0.26 0.38 0.45 0.49 0.64 0.76 0.60 0.43 0.34 0.32 0.28 0.21 0.17 0.17
0.00 0.00 0.00 0.00 0.00 0.02 0.07 0.06 0.03 0.05 0.07 0.16 0.32 0.50 0.61 0.62 0.54 0.58 0.58 0.67 0.60 0.50 0.47 0.41 0.37 0.32 0.24 0.24 0.29 0.30 0.38 0.49 0.45 0.42 0.42 0.38 0.28 0.23 0.22 0.19 0.15 0.10 0.08 0.09
0.00 0.00 0.00 0.00 0.00 0.02 0.05 0.04 0.02 0.03 0.10 0.16 0.32 0.53 0.57 0.62 0.69 0.80 0.85 0.84 0.64 0.47 0.40 0.39 0.36 0.28 0.23 0.24 0.27 0.30 0.38 0.46 0.35 0.25 0.21 0.20 0.19 0.19 0.19 0.16 0.14 0.10 0.06 0.04
0.00 0.00 0.00 0.00 0.01 0.02 0.03 0.03 0.02 0.02 0.10 0.18 0.33 0.47 0.50 0.59 0.73 0.81 0.81 0.69 0.47 0.31 0.24 0.19 0.14 0.12 0.14 0.17 0.17 0.16 0.19 0.26 0.23 0.18 0.16 0.15 0.16 0.16 0.17 0.17 0.17 0.11 0.05 0.02
0.00 0.00 0.00 0.00 0.00 0.00 0.00 0.01 0.02 0.03 0.07 0.19 0.28 0.34 0.39 0.41 0.43 0.45 0.46 0.40 0.29 0.18 0.10 0.06 0.05 0.06 0.08 0.09 0.09 0.07 0.06 0.07 0.09 0.11 0.10 0.12 0.13 0.14 0.14 0.16 0.15 0.12 0.07 0.03
0.00 0.00 0.00 0.00 0.00 0.00 0.00 0.01 0.03 0.06 0.10 0.17 0.19 0.22 0.20 0.14 0.10 0.10 0.11 0.12 0.09 0.04 0.01 0.01 0.01 0.01 0.01 0.01 0.01 0.01 0.00 0.00 0.01 0.02 0.03 0.06 0.08 0.10 0.11 0.12 0.12 0.11 0.09 0.07
0.00 0.00 0.00 0.00 0.00 0.00 0.00 0.00 0.03 0.06 0.07 0.08 0.11 0.16 0.15 0.09 0.03 0.01 0.01 0.02 0.02 0.01 0.01 0.00 0.00 0.00 0.00 0.00 0.00 0.00 0.00 0.00 0.00 0.00 0.01 0.01 0.02 0.03 0.03 0.03 0.04 0.03 0.04 0.03
0.00 0.00 0.00 0.00 0.00 0.00 0.00 0.00 0.00 0.01 0.02 0.04 0.05 0.07 0.08 0.04 0.01 0.00 0.00 0.00 0.00 0.00 0.00 0.00 0.00 0.00 0.00 0.00 0.00 0.00 0.00 0.00 0.00 0.00 0.00 0.00 0.00 0.00 0.00 0.00 0.01 0.01 0.01 0.02
0.00 0.00 0.00 0.00 0.00 0.00 0.00 0.00 0.00 0.00 0.00 0.00 0.00 0.01 0.01 0.00 0.00 0.00 0.00 0.00 0.00 0.00 0.00 0.00 0.00 0.00 0.00 0.00 0.00 0.00 0.00 0.00 0.00 0.00 0.00 0.00 0.00 0.00 0.00 0.00 0.00 0.00 0.01 0.01
0.00 0.00 0.00 0.00 0.00 0.00 0.00 0.00 0.00 0.00 0.00 0.00 0.00 0.00 0.00 0.00 0.00 0.00 0.00 0.00 0.00 0.00 0.00 0.00 0.00 0.00 0.00 0.00 0.00 0.00 0.00 0.00 0.00 0.00 0.00 0.00 0.00 0.00 0.01 0.01 0.00 0.00 0.01 0.01
0.00 0.00 0.00 0.00 0.00 0.00 0.00 0.00 0.00 0.00 0.00 0.00 0.00 0.00 0.00 0.00 0.00 0.00 0.00 0.00 0.00 0.00 0.00 0.00 0.00 0.00 0.00 0.00 0.00 0.00 0.00 0.00 0.00 0.00 0.00 0.01 0.01 0.00 0.02 0.02 0.01 0.01 0.01 0.01
0.00 0.00 0.00 0.00 0.00 0.00 0.00 0.00 0.00 0.00 0.00 0.00 0.00 0.00 0.00 0.00 0.00 0.00 0.00 0.00 0.00 0.00 0.00 0.00 0.00 0.00 0.00 0.00 0.00 0.00 0.00 0.00 0.00 0.00 0.01 0.01 0.01 0.00 0.01 0.02 0.01 0.01 0.01 0.01
0.00 0.00 0.00 0.00 0.00 0.00 0.00 0.00 0.00 0.00 0.00 0.00 0.00 0.00 0.00 0.00 0.00 0.00 0.00 0.00 0.00 0.00 0.00 0.00 0.00 0.00 0.00 0.00 0.00 0.00 0.00 0.00 0.00 0.00 0.00 0.00 0.01 0.01 0.01 0.01 0.01 0.01 0.01 0.01
0.00 0.00 0.00 0.00 0.00 0.00 0.00 0.00 0.00 0.00 0.00 0.00 0.00 0.00 0.00 0.00 0.00 0.00 0.00 0.00 0.00 0.00 0.00 0.00 0.00 0.00 0.00 0.00 0.00 0.00 0.00 0.00 0.00 0.00 0.00 0.00 0.00 0.01 0.01 0.01 0.00 0.01 0.01 0.01
0.00 0.00 0.00 0.00 0.00 0.00 0.00 0.00 0.00 0.00 0.00 0.00 0.00 0.00 0.00 0.00 0.00 0.00 0.00 0.00 0.00 0.00 0.00 0.00 0.00 0.00 0.00 0.00 0.00 0.00 0.00 0.00 0.00 0.00 0.00 0.00 0.00 0.01 0.02 0.01 0.00 0.00 0.00 0.00
0.00 0.00 0.00 0.00 0.00 0.00 0.00 0.00 0.00 0.00 0.00 0.00 0.00 0.00 0.00 0.00 0.00 0.00 0.00 0.00 0.00 0.00 0.00 0.00 0.00 0.00 0.00 0.00 0.00 0.00 0.00 0.00 0.00 0.00 0.00 0.00 0.00 0.00 0.01 0.02 0.01 0.00 0.00 0.00